Voltar ao catálogo

TIANTONG-1 1

AtivoComunicaçõesGEO
NORAD 41725·PAYLOAD·🇨🇳 China

Lançado Aug 5, 2016 de Xichang Satellite Launch Center

Loading…

TLE

AtualizadoSource: Space-Track

Época: Sep 14, 2026, 10:51 UTC

1 41725U 16048A   26257.45266462 -.00000325  00000-0  00000-0 0  9996
2 41725   4.0215  43.9979 0002402  77.6719 136.1447  1.00273598 37167

Acompanhe TIANTONG-1 1 em tempo real com AllMySat

Download on the App Store